Location: Highridge
(54.0333°N, 114.1333°W)
Time: 13:38:25
(UTC+00:00)

Oscar 19 - Pass Details

Date: 01 December 2023
Orbit: 771 x 789 km, 98.9° (Epoch: 01 March)

Event Time Altitude Azimuth Distance (km) Brightness Sun altitude
Rises 14:08:40 0° 10° (N) 3,269 13.7 -11.5°
Reaches altitude 10° 14:11:22 10° 357° (N) 2,340 12.9 -11.1°
Maximum altitude 14:15:24 24° 305° (NW) 1,580 11.7 -10.5°
Drops below altitude 10° 14:19:26 10° 254° (WSW) 2,338 12.7 -10.0°
Sets 14:22:08 0° 240° (WSW) 3,265 13.5 -9.6°
